Terminal Aerodrome Forecast
Issued by NWS

Home | Current Version | Previous Version | Text Only | Print | Product List | Glossary On
Versions: 1 2 3 4 5 6 7 8 9 10 11 12 13 14 15 16 17 18 19 20 21 22 23
000
FTUS46 KMFR 191510 AAB
TAFOTH
TAF AMD
KOTH 191510Z 1915/2012 20009KT 2SM RA FEW005 BKN025 OVC035
      WS020/20050KT
     FM191700 19015G25KT 3SM RA BR OVC015 WS020/21050KT
     FM192000 21020G30KT 3SM RA BR SCT005 OVC010
     FM192200 23012G20KT 5SM -RA BR OVC015
     FM200000 21012G20KT P6SM -SHRA SCT015 OVC025=

USA.gov is the U.S. government's official web portal to all federal, state and local government web resources and services.